Regional Weather Roundup
Issued by NWS Midland/Odessa, TX

Skip options and go directly to product.
Home | Oldest Version | Previous Version | Current Version | All | Graphics & Text | Save Text | Print | Product List | Glossary On

Skip product version selection by date and time.   
421
ASUS44 KMAF 011110
RWRMAF
MIDLAND AREA WEATHER ROUNDUP
NATIONAL WEATHER SERVICE MIDLAND TX
600 AM CDT MON SEP 01 2014

...IN SOUTHWEST TEXAS AND SOUTHEAST NEW MEXICO...

CITY           SKY/WX    TMP DP  RH WIND       PRES   REMARKS
ALPINE         CLEAR     72  57  60 SW6       30.09S
ANDREWS        FAIR      78  62  58 S13G23    29.91S
ARTESIA        NOT AVBL
BIG SPRING     CLEAR     79  64  60 S18       29.92S
CARLSBAD       CLEAR     72  58  61 CALM      29.90R
DRYDEN           N/A     80  63  55 E3        29.90R
FORT STOCKTON  CLEAR     76  62  62 S15       29.92R
GUAD PASS      CLEAR     73  45  36 SW16      30.09S
HOBBS          NOT AVBL
MARFA          CLEAR     61  55  82 N7        30.09S
MIDLAND AIRPK  NOT AVBL
MIDLAND INTL   CLEAR     79  63  57 S13       29.91R
ODESSA         CLEAR     79  62  56 S15       29.92R
PECOS          CLEAR     71  59  65 NW3       29.88R
PRESIDIO       FAIR      81  61  51 N10       29.91S
SEMINOLE       CLEAR     75  61  61 S8        29.93S
SNYDER         CLEAR     76  66  71 S14       29.90S
WINK           CLEAR     79  63  57 SE12      29.87R
$$
...OTHER STATIONS IN TEXAS...

CITY           SKY/WX    TMP DP  RH WIND       PRES   REMARKS
ABILENE        CLEAR     78  69  73 S20G29    29.87S
AMARILLO       CLEAR     74  57  55 W10       29.90R
AUSTIN         MOCLDY    77  75  93 S6        29.93R
BROWNSVILLE    CLEAR     79  78  97 SE3       29.87F
CORPUS CHRISTI PTCLDY    78  76  93 SE6       29.89S
DALLAS FTW     MOCLDY    78  71  79 S22G28    29.88S
DEL RIO        CLEAR     80  71  74 SE12      29.88R
EL PASO        CLEAR     77  41  27 SW8       29.96S
HOUSTON INT    PTCLDY    75  73  94 CALM      29.94S
LUBBOCK        PTCLDY    76  61  59 S16       29.89F
SAN ANGELO     CLEAR     77  69  76 S16G24    29.90R
SAN ANTONIO    CLOUDY    79  74  84 S9        29.93S
WACO           PTCLDY    76  73  91 SE9       29.92F
WICHITA FALLS  NOT AVBL
$$
...OTHER LOCATIONS IN NEW MEXICO...

CITY           SKY/WX    TMP DP  RH WIND       PRES   REMARKS
ALAMAGORDO     CLEAR     66  37  34 CALM      29.99S
ALBUQUERQUE    CLEAR     66  40  38 SE6       30.08S
CANNON AFB     CLEAR     65  58  77 SW8       29.95S
CLOVIS           N/A     70  57  64 SW12      29.97S
HOLLOMAN AFB   CLEAR     70  40  33 SE6       29.97R
ROSWELL        CLEAR     66  46  48 SW5       29.92R
RUIDOSO        CLEAR     63  36  36 CALM      30.20S
SANTA FE       CLEAR     56  37  49 N3        30.12S
TRUTH OR CONSE CLEAR     71  41  33 SE5       30.04R
TUCUMCARI      CLEAR     67  53  61 NE10      29.94R
$$

USA.gov is the U.S. government's official web portal to all federal, state and local government web resources and services.